sat.trackr.live / text

‹ back to catalog

STARLINK-37125

NORAD 68276 · 2026-055Q

PAYLOAD ACTIVE UNKNOWN

§ Identity

Operator
Country
US
Launch date
2026-03-19
Launch site
AFETR
Launch vehicle
Mass (kg)
RCS (m²)

Purposes: comms

External: N2YO · Heavens-Above · Gunter

§ Orbital elements

Epoch: 2026-05-24T18:41:20.721120Z

Period
93.97 min
Inclination
53.1591°
Eccentricity
0.0015625
Mean motion
15.32416992 rev/d
Perigee alt
457.9 km
Apogee alt
479.3 km
Semi-major
6,846.7 km
B*
-5.8510e-2
RAAN
324.9024°
Arg perigee
48.4554°
Mean anomaly
311.7785°
Rev number
1,159

§ Raw data

STARLINK-371251 68276U 26055Q   26144.77871205 -.01692874  00000+0 -58510-1 0  99992 68276  53.1591 324.9024 0015625  48.4554 311.7785 15.32416992 11598

JSON: /api/v1/satellites/68276 · /tle

For live sub-satellite position, see the globe view (requires WebGL).

§ Visibility from observer

Set your observer location to see the next 7 days of passes ≥ 10°. The values pass through the URL so the page stays shareable.

No JS? Fill the form by hand. The geolocation button needs JavaScript.